Flag for Germany Weather past 2 weeks in Kaarst, North Rhine-Westphalia, Germany

Now
63 °F

Passing clouds.


Feels Like: 63 °F
Forecast: 42 / 51 °F
Wind: 8 mph from South

Location: Monchengladbach Airport


UV Index: 3 (Moderate)

Visibility: N/A


Pressure: 30.07 "Hg

Humidity: 34%

Dew point: 34 °F

Location of KaarstLocation

Historic Weather in Kaarst

°F

Kaarst temperature yesterday

Maximum temperature yesterday: 59 °F (at 5:20 PM)
Minimum temperature yesterday: 32 °F (at 7:50 AM)
Average temperature yesterday: 52 °F

Past Weeks' High & Low Weather Summary

 TemperatureHumidityPressure
High72 °F (Apr 2, 4:50 PM)100% (Apr 3, 7:50 AM)30.45 "Hg (Apr 3, 7:50 AM)
Low32 °F (Apr 16, 7:50 AM)31% (Apr 12, 4:20 PM)29.59 "Hg (Apr 3, 1:50 PM)
Average56 °F68%30.05 "Hg
* Reported Apr 2 2:20 PM — Apr 17 2:50 PM, Kaarst, Weather by CustomWeather, © 2014

Note: Actual official high and low records may vary slightly from our data, if they occured in-between our weather recording intervals... More about our weather records

Advertising

Historic Weather Conditions — Data for Previous 24 hours

 ConditionsComfort  
Time TempWeatherWind HumidityBarometerVisibility
2:50 PM
Apr 17
63 °FClear.6 mph34%30.09 "Hg10 mi
2:20 PM61 °FPassing clouds.6 mph39%30.09 "HgN/A
1:50 PM61 °FClear.8 mph39%30.12 "Hg10 mi
1:20 PM59 °FClear.6 mph39%30.15 "Hg10 mi
12:50 PM59 °FPassing clouds.5 mph39%30.15 "HgN/A
12:20 PM59 °FPassing clouds.5 mph39%30.18 "HgN/A
11:50 AM57 °FPassing clouds.7 mph44%30.18 "HgN/A
11:20 AM57 °FPassing clouds.7 mph44%30.21 "HgN/A
10:50 AM55 °FPassing clouds.8 mph51%30.21 "HgN/A
10:20 AM52 °FPassing clouds.7 mph58%30.24 "HgN/A
9:50 AM50 °FPassing clouds.6 mph67%30.24 "HgN/A
9:20 AM48 °FPassing clouds.6 mph71%30.24 "HgN/A
8:50 AM46 °FPassing clouds.6 mph82%30.24 "HgN/A
8:20 AM45 °FPassing clouds.5 mph81%30.24 "HgN/A
7:50 AM41 °FPassing clouds.6 mph87%30.27 "HgN/A
8:20 PM
Apr 16
52 °FClear.2 mph54%30.33 "Hg10 mi
7:50 PM57 °FClear.2 mph44%30.33 "Hg10 mi
7:20 PM57 °FClear.3 mph36%30.33 "Hg10 mi
6:50 PM59 °FClear.2 mph31%30.33 "Hg10 mi
6:20 PM59 °FClear.5 mph31%30.36 "Hg10 mi
5:50 PM59 °FClear.3 mph31%30.36 "Hg10 mi
5:20 PM59 °FClear.2 mph31%30.36 "Hg10 mi
4:50 PM57 °FClear.3 mph33%30.36 "Hg10 mi
4:20 PM57 °FClear.3 mph33%30.36 "Hg10 mi
3:50 PM57 °FPassing clouds.7 mph33%30.39 "HgN/A
3:20 PM57 °FClear.5 mph36%30.39 "Hg10 mi
Weather by CustomWeather, © 2014

See weather overview